Location: Chiroubles
(46.1812°N, 4.6660°E)
Time: 19:03:01
(UTC+00:00)

Cosmos 1862 - Pass Details

Date: 15 August 2020
Orbit: 537 x 557 km, 82.5° (Epoch: 24 September)

Event Time Altitude Azimuth Distance (km) Brightness Sun altitude
Rises 19:19:42 0° 194° (SSW) 2,727 6.7 -5.6°
Reaches altitude 10° 19:21:52 10° 198° (SSW) 1,839 5.9 -5.9°
Maximum altitude 19:25:54 66° 281° (W) 615 3.9 -6.5°
Drops below altitude 10° 19:29:57 10° 4° (N) 1,854 6.4 -7.2°
Sets 19:32:09 0° 7° (N) 2,753 7.2 -7.5°
